SCP
0 0 0 0 0 0 0 0 0 0 0 0 0 0 0 0 0 0 0 0 0 0 0 0 0 0 0 0 0 0 0 0 0 0 0 0 0 0 0 0 0 0 0
0 0 0 0 0 0 0 0 0 0 0 0 0 0 0 0 0 0 0 0 0 0 0 0 0 0 0 0 0 0 0 0 0 0 0 0 0 0 0 0 0 0 0
0 0 0 0 0 0 0 0 0 0 0 0 0 0 0 0 0 0 0 0 0 0 0 0 0 0 0 0 0 0 0 0 0 0 0 0 0 0 0 0 0 0 0
0 0 0 0 0 0 0 0 0 0 0 0 0 0 0 0 0 0 0 0 0 0 0 0 0 0 0 0 0 0 0 0 0 0 0 0 0 0 0 0 0 0 0
0 0 0 0 0 0 0 0 0 0 0 0 0 0 0 0 0 0 0 0 0 0 0 0 0 0 0 0 0 0 0 0 0 0 0 0 0 0 0 0 0 0 0
0 0 0 0 0 0 0 0 0 0 0 0 0 0 0 0 0 0 0 0 0 0 0 0 0 0 0 0 0 0 0 0 0 0 0 0 0 0 0 0 0 0 0
0 0 0 0 0 0 0 0 0 0 0 0 0 0 0 0 0 0 0 0 0 0 0 0 0 0 0 0 0 0 0 0 0 0 0 0 0 0 0 0 0 0 0
0 0 0 0 0 0 0 0 0 0 0 0 0 0 0 0 0 0 0 0 0 0 0 0 0 0 0 0 0 0 0 0 0 0 0 0 0 0 0 0 0 0 0
0 0 0 0 0 0 0 0 0 0 0 0 0 0 0 0 0 0 0 0 0 0 0 0 0 0 0 0 0 0 0 0 0 0 0 0 0 0 0 0 0 0 0
0 0 0 0 0 0 0 0 0 0 0 0 0 0 0 0 0 0 0 0 0 0 0 0 0 0 0 0 0 0 0 0 0 0 0 0 0 0 0 0 0 0 0
0 0 0 0 0 0 0 0 0 0 0 0 0 0 0 0 0 0 0 0 0 0 0 0 0 0 0 0 0 0 0 0 0 0 0 0 0 0 0 0 0 0 0
0 0 0 0 0 0 0 0 0 0 0 0 0 0 0 0 0 0 0 0 0 0 0 0 0 0 0 0 0 0 0 0 0 0 0 0 0 0 0 0 0 0 0
0 0 0 0 0 0 0 0 0 0 0 0 0 0 0 0 0 0 0 0 0 0 0 0 0 0 0 0 0 0 0 0 0 0 0 0 0 0 0 0 0 0 0
0 0 0 0 0 0 0 0 0 0 0 0 0 0 0 0 0 0 0 0 0 0 0 0 0 0 0 0 0 0 0 0 0 0 0 0 0 0 0 0 0 0 0
0 0 0 0 0 0 0 0 0 0 0 0 0 0 0 0 0 0 0 0 0 0 0 0 0 0 0 0 0 0 0 0 0 0 0 0 0 0 0 0 0 0 0
0 0 0 0 0 0 0 0 0 0 0 0 0 0 0 0 0 0 0 0 0 0 0 0 0 0 0 0 0 0 0 0 0 0 0 0 0 0 0 0 0 0 0
0 0 0 0 0 0 0 0 0 0 0 0 0 0 0 0 0 0 0 0 0 0 0 0 0 0 0 0 0 0 0 0 0 0 0 0 0 0 0 0 0 0 0
0 0 0 0 0 0 0 0 0 0 0 0 0 0 0 0 0 0 0 0 0 0 0 0 0 0 0 0 0 0 0 0 0 0 0 0 0 0 0 0 0 0 0
0 0 0 0 0 0 0 0 0 0 0 0 0 0 0 0 0 0 0 0 0 0 0 0 0 0 0 0 0 0 0 0 0 0 0 0 0 0 0 0 0 0 0
0 1 1 0 0 0 0 0 0 0 0 0 0 0 0 0 0 0 0 0 0 0 0 0 0 0 0 0 0 0 0 0 0 0 0 0 0 0 0 0 0 0 0
0 1 1 0 0 0 0 0 0 0 0 0 0 0 0 0 0 0 0 0 0 0 0 0 0 0 0 0 0 0 0 0 0 0 0 0 0 0 0 0 0 0 0
0 0 0 0 0 0 0 0 0 0 0 0 0 0 0 0 0 0 0 0 0 0 0 0 0 0 0 0 0 0 0 0 0 0 0 0 0 0 0 0 0 0 0
0 0 0 0 0 0 0 0 0 0 0 0 0 0 0 0 0 0 0 0 0 0 0 0 0 0 0 0 0 0 0 0 0 0 0 0 0 0 0 0 0 0 0
0 0 0 0 0 0 0 0 0 0 0 0 0 0 0 0 0 0 0 0 0 0 0 0 0 0 0 0 0 0 0 0 0 0 0 0 0 0 0 0 0 0 0
0 0 0 0 0 0 0 0 0 0 0 0 0 0 0 0 0 0 0 0 0 0 0 0 0 0 0 0 0 0 0 0 0 0 0 0 0 0 0 0 0 0 0
0 0 0 0 0 0 0 0 0 0 0 0 0 0 0 0 0 0 0 0 0 0 0 0 0 0 0 0 0 0 0 0 0 0 0 0 0 0 0 0 0 0 0
Wind_Speed
10 11 10 11 11 11 11 12 13 13 14 14 14 15 15 16 16 16 17 17 18 18 19 19 19 19 20 20 19 19 19 19 19 20 20 20 20 20 20 18 16 14 20
14 12 10 11 11 11 11 11 12 13 13 14 14 14 15 16 16 16 16 17 17 17 18 18 18 18 18 18 18 17 16 15 14 15 17 17 19 20 20 19 17 13 19
15 12 10 10 11 11 10 11 11 13 13 14 14 14 14 15 16 16 16 16 17 17 17 17 18 18 17 17 16 15 14 13 12 13 13 9 12 19 19 19 18 18 18
14 12 11 11 11 11 10 10 11 12 13 13 14 14 14 14 15 15 16 16 16 17 17 17 17 17 16 16 15 14 14 14 13 14 10 9 9 17 19 18 18 18 17
12 12 12 11 11 11 10 10 11 12 13 13 13 13 14 14 14 15 15 15 16 16 16 16 16 16 16 15 14 14 14 13 13 13 9 9 7 16 18 18 17 17 16
12 13 11 11 11 11 10 10 11 12 12 13 13 13 13 13 14 14 14 14 15 15 16 16 15 15 14 14 13 13 14 13 12 9 9 8 7 14 16 16 16 15 15
12 12 11 10 10 10 10 11 11 11 12 12 12 12 12 12 13 13 13 13 14 14 14 14 14 14 13 13 12 13 14 12 10 8 8 7 8 14 14 14 14 14 14
12 12 10 10 10 9 9 9 10 10 11 12 12 12 12 12 12 12 12 12 13 13 13 13 13 13 12 12 11 11 12 10 9 9 7 6 10 13 13 13 13 13 13
12 11 9 8 8 9 9 9 9 9 10 10 11 11 10 10 11 11 11 11 12 12 12 12 12 11 11 10 9 9 10 10 6 5 8 5 9 12 12 11 11 11 11
10 10 9 8 8 7 7 9 9 9 10 10 11 10 10 10 10 9 9 10 10 11 11 11 10 10 9 8 7 7 8 6 6 6 4 5 9 10 10 10 10 9 9
8 8 8 8 8 8 7 8 8 9 9 10 8 9 8 5 6 5 9 9 10 10 10 9 8 7 6 5 3 5 6 2 5 5 4 6 8 8 8 7 7 7 7
8 7 7 7 7 8 8 7 5 5 6 5 5 5 3 3 5 7 9 9 9 9 8 7 5 3 2 1 0 3 2 3 3 4 3 6 6 6 5 5 5 5 5
7 6 6 6 7 6 5 5 4 4 4 5 6 5 3 4 4 5 3 4 4 5 4 3 2 1 1 1 1 1 2 2 2 3 3 4 3 3 3 3 2 2 3
9 8 6 6 6 6 5 4 4 3 3 3 5 5 3 2 3 3 3 3 3 2 2 2 1 1 1 1 1 2 2 2 1 2 3 4 2 1 2 2 3 2 2
10 10 8 7 6 6 5 4 4 4 4 4 4 4 4 3 3 3 3 2 3 3 3 2 2 2 1 0 1 1 1 1 1 0 2 5 4 4 5 5 5 5 5
10 10 10 8 7 7 5 4 4 4 4 4 4 5 5 4 4 4 3 3 2 2 2 2 2 2 1 1 1 2 2 2 2 2 2 4 7 7 7 8 8 8 8
10 10 10 10 9 8 7 6 4 4 4 4 4 5 5 4 5 4 4 3 3 3 2 1 1 1 1 1 2 3 2 3 3 3 3 2 4 8 9 11 11 11 11
10 10 11 9 10 9 8 6 4 4 4 4 4 4 5 5 5 5 4 4 4 3 3 2 2 2 2 2 3 3 3 3 4 4 4 4 3 4 8 13 13 14 14
11 11 11 11 11 10 9 6 5 5 5 4 4 4 5 6 5 4 4 4 5 4 3 3 3 3 3 3 3 3 3 3 4 5 6 6 5 5 4 8 12 14 15
10 11 11 11 11 10 8 6 5 5 5 5 5 5 7 6 6 5 4 5 5 4 3 3 4 3 2 2 2 3 4 5 4 5 6 5 5 6 6 5 5 8 15
8 9 11 12 12 10 8 8 7 7 6 5 5 7 8 7 7 6 4 5 5 5 5 5 4 4 3 1 0 3 4 7 7 7 6 5 6 6 6 6 5 5 6
8 8 9 11 12 11 9 8 6 6 6 6 6 7 8 8 8 7 7 5 6 5 5 5 4 3 3 3 3 1 4 4 5 7 5 5 6 4 6 7 7 7 6
7 7 7 9 10 12 10 6 5 5 4 5 6 6 7 8 8 8 8 7 6 6 6 7 7 6 4 3 4 4 3 4 3 3 4 5 5 5 5 5 7 8 7
6 5 6 6 7 9 11 9 8 7 7 7 5 5 7 8 8 8 8 7 6 6 6 6 7 6 5 4 3 4 5 2 2 4 4 3 5 6 7 6 7 8 8
2 2 3 4 5 6 9 10 9 8 6 4 4 6 6 6 7 7 7 6 6 6 6 6 6 6 6 5 4 3 4 4 4 5 7 4 3 4 6 7 6 6 7
2 1 2 3 3 3 6 8 8 8 6 5 4 4 4 4 4 5 5 5 5 5 5 6 5 6 6 6 5 4 4 4 5 6 7 6 6 5 5 5 6 6 7
Wind_Direction
114 118 122 116 111 106 101 99 99 93 90 86 83 80 79 77 76 74 73 71 70 70 69 69 69 68 68 68 68 68 69 70 72 71 68 67 67 66 65 64 64 61 66
117 120 121 115 111 108 103 102 103 99 95 90 86 84 81 80 78 77 76 74 73 73 72 71 71 71 70 70 69 68 67 66 70 76 72 67 68 68 68 67 68 69 69
114 122 121 114 111 109 106 105 106 105 99 95 90 86 83 82 80 79 80 78 77 76 76 75 73 72 71 70 67 64 58 52 57 72 72 67 67 70 69 68 69 70 70
121 128 121 117 114 111 108 108 108 107 103 100 94 89 85 84 82 80 81 80 80 79 78 76 75 73 71 69 65 59 49 44 53 68 66 62 62 69 69 68 67 67 69
118 115 119 121 118 114 110 107 110 110 107 104 99 93 88 85 84 83 81 81 82 81 79 77 76 74 72 68 61 52 42 41 57 66 67 64 60 71 70 69 68 66 66
115 115 122 123 120 116 113 109 112 112 111 107 103 97 92 88 87 85 83 83 83 82 81 79 77 74 71 65 57 46 37 43 64 62 61 60 60 72 73 71 70 68 67
117 118 125 121 119 117 115 112 111 112 112 110 106 102 97 93 91 90 88 86 86 84 83 81 78 74 70 64 53 41 32 44 74 67 64 57 63 71 71 71 70 69 68
118 120 124 117 117 115 113 112 112 113 113 113 110 106 102 98 94 91 90 89 88 87 85 83 81 77 71 64 51 35 24 32 74 79 70 59 68 71 71 70 70 70 69
121 125 132 133 124 113 109 107 108 111 111 112 110 105 98 94 92 88 86 89 90 90 88 86 83 79 74 65 49 27 15 17 61 71 75 58 67 72 73 72 71 70 70
129 136 143 147 141 135 119 111 109 111 111 109 108 107 104 101 97 94 87 88 93 94 93 90 86 83 77 67 44 15 357 3 64 71 71 67 69 72 72 72 71 71 71
139 144 147 150 149 147 141 129 120 115 117 118 116 127 138 138 124 102 91 91 93 97 98 95 93 93 89 76 38 355 343 28 67 78 71 75 75 74 74 74 74 75 76
153 155 150 152 151 149 143 145 148 143 147 153 144 167 191 119 105 106 97 97 99 101 103 102 108 131 170 149 213 316 340 32 69 93 91 86 81 79 80 82 82 83 86
165 163 158 157 152 146 136 157 157 152 163 163 156 177 140 109 118 120 120 120 123 134 125 133 170 224 67 61 40 11 13 21 58 94 112 106 97 100 104 114 115 110 111
173 173 174 165 156 151 150 160 151 148 157 159 154 164 147 141 148 146 150 159 160 159 143 158 160 92 57 42 14 15 9 6 43 96 139 147 158 204 204 197 194 189 185
177 172 176 173 167 162 161 163 159 159 162 159 151 168 164 156 161 148 146 149 162 146 154 167 163 146 160 199 322 338 325 327 325 192 154 184 203 235 244 236 227 223 224
180 175 174 178 178 170 173 173 169 167 162 155 154 171 180 167 161 154 151 158 160 150 158 167 169 159 187 192 247 269 284 289 274 261 205 201 216 231 248 250 244 242 239
180 178 176 180 181 179 181 183 177 174 161 160 164 178 181 175 164 157 157 165 170 157 149 161 176 151 206 213 241 248 254 269 275 268 259 227 217 226 237 248 252 252 250
177 180 181 178 184 187 186 187 185 180 172 169 167 179 182 184 176 164 167 175 171 158 162 181 187 195 222 227 238 243 235 245 254 256 254 249 239 227 228 237 246 251 254
178 178 179 179 185 190 188 186 186 183 181 175 173 178 183 186 186 174 177 177 168 167 179 188 193 196 216 226 233 243 244 242 244 244 243 243 241 238 232 235 236 242 249
178 175 177 178 184 188 188 187 187 189 189 184 183 183 180 185 188 184 181 177 168 172 188 192 200 207 219 229 249 261 257 250 244 242 241 241 238 238 236 240 238 239 242
177 177 178 180 183 185 189 190 193 197 194 193 194 190 188 185 187 188 185 180 177 188 198 194 190 208 223 185 243 289 271 243 238 239 234 237 242 238 234 238 239 239 243
185 188 185 184 183 186 193 193 194 194 195 197 195 198 195 189 187 190 191 188 188 194 201 197 186 188 209 171 177 241 302 304 258 238 230 233 240 238 238 238 239 240 240
190 197 197 193 187 187 186 186 186 195 197 191 195 199 200 194 190 191 195 194 193 194 203 203 193 193 209 200 190 192 226 259 303 286 236 230 233 236 242 242 241 242 242
188 193 200 202 195 187 183 189 188 194 202 203 192 191 191 194 194 194 196 197 196 197 205 204 198 199 199 210 202 220 233 244 271 299 293 258 240 238 239 240 240 241 239
138 174 197 206 208 195 186 187 193 202 205 198 186 183 186 188 191 192 193 195 199 201 205 203 199 203 206 212 201 197 221 234 228 251 279 283 271 247 242 242 242 240 237
99 135 183 194 209 202 185 182 192 199 196 194 195 182 178 176 181 188 189 196 199 200 204 207 203 204 210 218 219 205 198 208 214 227 259 271 273 264 246 240 240 242 240